Location: Arrodets-la-Barthe
(43.0306°N, 0.2829°E)
Time: 19:05:13
(UTC+00:00)

Cosmos 1626 Rocket - Pass Details

Date: 24 October 2021
Orbit: 603 x 631 km, 82.5° (Epoch: 02 December)

Event Time Altitude Azimuth Distance (km) Brightness Sun altitude
Rises 18:20:15 0° 351° (N) 2,867 7.1 -14.9°
Reaches altitude 10° 18:22:28 10° 352° (N) 1,958 6.2 -15.3°
Maximum altitude 18:26:49 90° 244° (WSW) 610 3.4 -16.1°
Drops below altitude 10° 18:31:07 10° 173° (S) 1,945 6.0 -16.9°
Sets 18:33:19 0° 174° (S) 2,846 6.9 -17.3°
